GSAT0104 (PRN E20)

Last updated on Sun May 05 2024 00:03:10 GMT+0000 (Coordinated Universal Time)

1 38858U 12055B 24124.21481743 .00000083 00000+0 00000+0 0 9997 2 38858 55.3937 122.9215 0002132 289.6851 70.3132 1.64591986 71895
UTC large
Height (km)
Speed (km/s)
/
Latitude / Longitude
Inclination (degrees)
Orbital Period (minutes)
Azimuth
Elevation
Range (km)
Doppler Factor

Next 0 passes for location: London (51.5072 / 0.1276)

Sorry there are no passes over London.